| time (UTC) | temp C | wind direction | speed KPH | gust KPH | rain 1hr cm | rain 24hr cm | rain mn cm | humidity % | barometer mb |
| 20260508074528 | 6 | 120 | 0.0 | 0.0 | 0.00 | 0.03 | 0.03 | 85 | 1012.5 |
| 20260508073007 | 7 | 120 | 0.0 | 0.0 | 0.03 | 0.03 | 0.03 | 86 | 1012.5 |
| 20260508071514 | 7 | 120 | 0.0 | 0.0 | 0.03 | 0.03 | 0.03 | 85 | 1012.6 |
| 20260508070018 | 7 | 171 | 0.0 | 6.4 | 0.03 | 0.03 | 0.03 | 85 | 1012.8 |
| 20260508063026 | 6 | 220 | 0.0 | 4.8 | 0.00 | 0.00 | 0.00 | 86 | 1012.7 |
| 20260508061511 | 6 | 138 | 0.0 | 0.0 | 0.00 | 0.00 | 0.00 | 84 | 1012.6 |
| 20260508060024 | 7 | 138 | 0.0 | 0.0 | 0.00 | 0.00 | 0.00 | 84 | 1012.7 |
| 20260508051526 | 7 | 138 | 0.0 | 0.0 | 0.00 | 0.00 | 0.00 | 79 | 1013.0 |
| 20260508050014 | 7 | 138 | 0.0 | 0.0 | 0.00 | 0.00 | 0.00 | 78 | 1013.0 |
| 20260508043029 | 7 | 138 | 0.0 | 1.6 | 0.00 | 0.00 | 0.00 | 75 | 1013.1 |
| 20260508041524 | 7 | 250 | 0.0 | 0.0 | 0.00 | 0.00 | 0.00 | 70 | 1013.2 |
| 20260508040008 | 7 | 250 | 0.0 | 3.2 | 0.00 | 0.00 | 0.00 | 72 | 1013.1 |
| 20260508034519 | 7 | 236 | 0.0 | 1.6 | 0.00 | 0.00 | 0.00 | 74 | 1013.2 |
| 20260508031528 | 5 | 276 | 0.0 | 0.0 | 0.00 | 0.00 | 0.00 | 83 | 1013.2 |
| 20260508030026 | 4 | 276 | 0.0 | 0.0 | 0.00 | 0.00 | 0.00 | 82 | 1013.2 |
| 20260508024511 | 4 | 276 | 0.0 | 0.0 | 0.00 | 0.00 | 0.00 | 78 | 1013.1 |
| 20260508023018 | 5 | 276 | 0.0 | 0.0 | 0.00 | 0.00 | 0.00 | 78 | 1013.1 |
| 20260508021523 | 5 | 276 | 0.0 | 0.0 | 0.00 | 0.00 | 0.00 | 78 | 1013.0 |
| 20260508014534 | 6 | 276 | 0.0 | 0.0 | 0.00 | 0.00 | 0.00 | 73 | 1012.8 |
| 20260508010040 | 7 | 276 | 0.0 | 0.0 | 0.00 | 0.00 | 0.00 | 66 | 1012.5 |
| 20260508003024 | 10 | 276 | 0.0 | 0.0 | 0.00 | 0.00 | 0.00 | 57 | 1012.3 |
| 20260508001529 | 11 | 276 | 0.0 | 1.6 | 0.00 | 0.00 | 0.00 | 50 | 1012.3 |
| 20260508000017 | 12 | 236 | 0.0 | 3.2 | 0.00 | 0.00 | 0.00 | 48 | 1012.2 |
| 20260507234521 | 12 | 312 | 1.6 | 4.8 | 0.00 | 0.00 | 0.00 | 45 | 1012.0 |
| 20260507233028 | 12 | 160 | 0.0 | 4.8 | 0.00 | 0.00 | 0.00 | 49 | 1011.9 |
| 20260507231524 | 12 | 149 | 1.6 | 6.4 | 0.00 | 0.00 | 0.00 | 46 | 1011.9 |
| 20260507230035 | 12 | 265 | 1.6 | 6.4 | 0.00 | 0.00 | 0.00 | 46 | 1011.9 |
| 20260507224519 | 12 | 257 | 1.6 | 8.0 | 0.00 | 0.00 | 0.00 | 45 | 1012.0 |
| 20260507223024 | 14 | 269 | 4.8 | 12.9 | 0.00 | 0.00 | 0.00 | 42 | 1012.0 |
| 20260507221524 | 13 | 245 | 4.8 | 11.3 | 0.00 | 0.00 | 0.00 | 42 | 1012.0 |
| 20260507220028 | 13 | 129 | 3.2 | 9.7 | 0.00 | 0.00 | 0.00 | 43 | 1012.0 |
| 20260507214519 | 13 | 292 | 3.2 | 11.3 | 0.00 | 0.00 | 0.00 | 45 | 1011.9 |
| 20260507213019 | 13 | 298 | 3.2 | 9.7 | 0.00 | 0.00 | 0.00 | 44 | 1011.5 |
| 20260507211534 | 13 | 315 | 3.2 | 11.3 | 0.00 | 0.00 | 0.00 | 47 | 1011.4 |
| 20260507210010 | 13 | 224 | 1.6 | 11.3 | 0.00 | 0.00 | 0.00 | 48 | 1011.3 |
| 20260507204520 | 13 | 323 | 3.2 | 12.9 | 0.00 | 0.00 | 0.00 | 50 | 1011.3 |
| 20260507203034 | 14 | 188 | 3.2 | 12.9 | 0.00 | 0.00 | 0.00 | 46 | 1011.0 |
| 20260507201522 | 14 | 325 | 3.2 | 9.7 | 0.00 | 0.00 | 0.00 | 44 | 1011.2 |
| 20260507200006 | 15 | 281 | 3.2 | 14.5 | 0.00 | 0.00 | 0.00 | 48 | 1011.1 |
| 20260507194530 | 15 | 217 | 4.8 | 9.7 | 0.00 | 0.00 | 0.00 | 44 | 1011.3 |
| 20260507193032 | 15 | 301 | 4.8 | 11.3 | 0.00 | 0.00 | 0.00 | 45 | 1011.4 |
| 20260507191519 | 15 | 265 | 3.2 | 8.0 | 0.00 | 0.00 | 0.00 | 45 | 1011.4 |
| 20260507190024 | 15 | 266 | 1.6 | 11.3 | 0.00 | 0.00 | 0.00 | 47 | 1011.5 |
| 20260507184527 | 13 | 284 | 4.8 | 11.3 | 0.00 | 0.00 | 0.00 | 46 | 1011.6 |
| 20260507183026 | 14 | 278 | 3.2 | 6.4 | 0.00 | 0.00 | 0.00 | 45 | 1011.6 |
| 20260507181515 | 15 | 262 | 0.0 | 9.7 | 0.00 | 0.00 | 0.00 | 49 | 1011.8 |
| 20260507180027 | 15 | 258 | 3.2 | 11.3 | 0.00 | 0.00 | 0.00 | 50 | 1011.9 |
| 20260507174524 | 15 | 248 | 1.6 | 9.7 | 0.00 | 0.00 | 0.00 | 47 | 1011.9 |
| 20260507173027 | 15 | 207 | 1.6 | 8.0 | 0.00 | 0.00 | 0.00 | 44 | 1011.9 |
| 20260507171514 | 13 | 222 | 1.6 | 9.7 | 0.00 | 0.00 | 0.00 | 46 | 1012.0 |
| 20260507170022 | 14 | 119 | 1.6 | 9.7 | 0.00 | 0.00 | 0.00 | 47 | 1011.9 |
| 20260507164527 | 15 | 220 | 1.6 | 9.7 | 0.00 | 0.00 | 0.00 | 48 | 1012.2 |
| 20260507163025 | 16 | 269 | 3.2 | 8.0 | 0.00 | 0.00 | 0.00 | 44 | 1012.1 |
| 20260507161539 | 16 | 157 | 1.6 | 4.8 | 0.00 | 0.00 | 0.00 | 46 | 1012.0 |
| 20260507160035 | 15 | 219 | 0.0 | 4.8 | 0.00 | 0.00 | 0.00 | 49 | 1012.0 |
| 20260507154518 | 15 | 281 | 3.2 | 8.0 | 0.00 | 0.00 | 0.00 | 43 | 1012.0 |
| 20260507153030 | 14 | 266 | 1.6 | 12.9 | 0.00 | 0.00 | 0.00 | 52 | 1012.3 |
| 20260507151526 | 14 | 255 | 1.6 | 6.4 | 0.00 | 0.00 | 0.00 | 48 | 1012.1 |
| 20260507150029 | 13 | 151 | 0.0 | 6.4 | 0.00 | 0.00 | 0.00 | 58 | 1012.4 |
| 20260507144527 | 12 | 337 | 3.2 | 9.7 | 0.00 | 0.00 | 0.00 | 53 | 1012.5 |
| 20260507143020 | 12 | 172 | 0.0 | 6.4 | 0.00 | 0.00 | 0.00 | 64 | 1012.5 |
| 20260507141526 | 12 | 152 | 0.0 | 4.8 | 0.00 | 0.00 | 0.00 | 70 | 1012.6 |
| 20260507140025 | 10 | 317 | 0.0 | 9.7 | 0.00 | 0.00 | 0.00 | 75 | 1012.7 |
| 20260507134526 | 9 | 190 | 0.0 | 4.8 | 0.00 | 0.00 | 0.00 | 82 | 1012.8 |
| 20260507133021 | 8 | 281 | 0.0 | 4.8 | 0.00 | 0.00 | 0.00 | 89 | 1013.0 |
| 20260507131520 | 7 | 165 | 0.0 | 3.2 | 0.00 | 0.00 | 0.00 | 94 | 1012.9 |
| 20260507130027 | 6 | 149 | 0.0 | 0.0 | 0.00 | 0.00 | 0.00 | 95 | 1012.9 |
| 20260507121503 | 3 | 288 | 0.0 | 0.0 | 0.00 | 0.00 | 0.00 | 95 | 1012.8 |
| 20260507120005 | 2 | 288 | 0.0 | 0.0 | 0.00 | 0.00 | 0.00 | 95 | 1012.9 |
| 20260507114505 | 2 | 288 | 0.0 | 0.0 | 0.00 | 0.00 | 0.00 | 95 | 1013.0 |
| 20260507113012 | 1 | 288 | 0.0 | 0.0 | 0.00 | 0.00 | 0.00 | 94 | 1013.0 |
| 20260507110013 | 1 | 288 | 0.0 | 0.0 | 0.00 | 0.00 | 0.00 | 95 | 1012.9 |
| 20260507104506 | 1 | 355 | 0.0 | 0.0 | 0.00 | 0.00 | 0.00 | 93 | 1012.6 |
| 20260507103013 | 1 | 355 | 0.0 | 0.0 | 0.00 | 0.00 | 0.00 | 93 | 1012.5 |
| 20260507101513 | 1 | 355 | 0.0 | 0.0 | 0.00 | 0.00 | 0.00 | 93 | 1012.5 |
| 20260507100021 | 1 | 355 | 0.0 | 0.0 | 0.00 | 0.00 | 0.00 | 93 | 1012.4 |
| 20260507094516 | 1 | 354 | 0.0 | 0.0 | 0.00 | 0.03 | 0.00 | 93 | 1012.3 |
| 20260507093013 | 2 | 355 | 0.0 | 0.0 | 0.00 | 0.08 | 0.00 | 93 | 1012.4 |
| 20260507091519 | 2 | 355 | 0.0 | 0.0 | 0.00 | 0.13 | 0.00 | 93 | 1012.5 |
| 20260507090017 | 2 | 355 | 0.0 | 0.0 | 0.00 | 0.18 | 0.00 | 93 | 1012.5 |
| 20260507084521 | 1 | 355 | 0.0 | 0.0 | 0.00 | 0.20 | 0.00 | 93 | 1012.5 |
| 20260507083016 | 1 | 355 | 0.0 | 0.0 | 0.00 | 0.23 | 0.00 | 92 | 1012.4 |
| 20260507081507 | 1 | 355 | 0.0 | 0.0 | 0.00 | 0.28 | 0.00 | 92 | 1012.5 |
| 20260507080015 | 2 | 355 | 0.0 | 0.0 | 0.00 | 0.36 | 0.00 | 91 | 1012.6 |